Погода в Истре

Россия / Московская область     55°54′51″N   36°51′37″E
темп.,
°C
ветер,
м/с
пор.,
м/с
влажн.,
%
обл.,
%
осадки,
мм/ч
давл.,
гПа
погр.,
м
13 апреля, вт
вт1300:00+9юв51391100 0.0 1026355
03:00+8юв4129538 0.0 1025285
06:00+7юв3109371 0.0 1025222
09:00+12ююв4970100 0.0 1024325
12:00+17ююв5852100 0.0 1023733
15:00+19ю5843100 0.0 10231881
18:00+17ююв49475 0.0 1022302
21:00+12юв396745 0.0 1022146
14 апреля, ср
ср1400:00+10ююв313715 0.0 1021245
03:00+8ююв3107526 0.0 1021183
06:00+7юв36819 0.0 1021101
09:00+13ююв476491 0.0 1020346
12:00+17ююв4552100 0.0 10191046
15:00+18ююв5638100 0.0 10181460
18:00+16ююв2649100 0.0 1017140
21:00+11юв226041 0.0 101831
15 апреля, чт
чт1500:00+10юв2267100 0.0 101813
03:00+9юв2269100 0.0 101714
06:00+8всв227199 0.0 101713
09:00+12в2359100 0.0 1018212
12:00+16в3442100 0.0 1017713
15:00+17в3440100 0.0 10171059
18:00+14св2458100 0.0 101786
21:00+11св51168100 0.0 1018357
16 апреля, пт
пт1600:00+9св51288100 0.0 1018439
03:00+7св5119295 0.0 1019377
06:00+6св5119097 0.0 1019432
09:00+7св51086100 0.1 1021430
12:00+8св6118799 2.5 1022459
15:00+13всв696493 2.7 10211030
18:00+12св6106891 0.0 1022953
21:00+8всв5127714 0.0 1024583
17 апреля, сб
сб1700:00+5св412679 0.0 1026419
03:00+4св5127034 0.0 1027388
06:00+2св4127571 0.0 1028340
09:00+7всв611540 0.0 1029813
12:00+10всв68400 0.0 10301451
15:00+11всв68395 0.0 10301650
18:00+10св58495 0.0 10301389
21:00+5св410620 0.0 1032327